Vorticity
nan nan nan nan nan nan nan nan nan nan nan nan nan nan nan nan nan nan nan nan nan nan nan nan nan nan nan nan nan nan nan nan
nan 8 7 7 7 7 8 8 7 4 6 7 7 7 7 7 7 10 12 10 9 10 9 8 9 8 8 10 9 8 7 nan
nan 7 6 7 6 6 6 7 6 4 5 7 8 8 7 7 8 9 10 10 10 10 9 8 9 8 7 8 11 13 8 nan
nan 8 6 5 7 8 7 7 6 7 7 6 7 7 7 6 6 6 7 8 8 8 8 9 8 8 7 6 7 11 11 nan
nan 7 6 6 7 6 8 8 7 9 10 7 7 7 7 7 8 8 7 6 7 8 8 8 9 8 8 9 9 8 10 nan
nan 7 8 6 8 7 7 8 7 9 8 7 9 9 9 9 7 6 5 6 6 7 7 7 8 9 8 8 8 10 10 nan
nan 8 9 7 7 8 8 7 7 8 8 9 10 9 8 7 7 5 6 6 5 6 7 7 7 8 8 8 7 7 9 nan
nan 9 7 8 7 6 7 8 8 8 8 9 11 10 8 8 7 7 7 7 7 6 6 7 8 8 7 8 8 6 7 nan
nan 9 8 8 8 8 7 8 8 9 9 10 12 10 8 9 9 8 7 8 8 6 6 7 7 7 7 8 9 8 7 nan
nan 11 10 10 10 10 9 8 9 9 11 10 9 9 9 9 8 7 8 8 7 6 6 6 6 4 6 8 9 8 7 nan
nan 15 13 12 13 11 11 13 11 10 9 8 9 8 8 8 7 8 7 7 6 6 6 6 6 4 6 7 7 6 7 nan
nan 17 17 15 14 14 12 12 11 9 8 8 8 8 8 7 7 7 7 6 6 6 8 7 7 6 6 7 6 6 7 nan
nan 18 17 16 15 12 11 11 11 9 8 8 8 8 7 7 7 7 6 6 7 8 9 8 7 7 7 8 5 6 8 nan
nan 13 13 13 13 13 12 10 8 9 8 8 8 8 7 7 8 7 6 6 7 8 9 9 8 8 8 9 9 6 7 nan
nan 12 13 14 14 11 9 9 8 8 8 9 9 9 8 8 8 7 7 8 8 8 9 11 11 11 11 9 9 8 8 nan
nan 13 13 12 10 9 8 8 9 9 9 8 8 10 11 9 9 8 8 8 9 10 12 13 13 15 13 8 11 9 8 nan
nan 12 10 8 8 8 8 8 8 9 9 10 11 11 10 9 10 11 12 12 11 11 12 12 13 10 10 13 10 8 13 nan
nan 8 7 7 8 9 9 9 10 10 9 9 10 10 10 10 11 11 11 11 10 9 9 9 9 9 9 10 12 13 13 nan
nan nan nan nan nan nan nan nan nan nan nan nan nan nan nan nan nan nan nan nan nan nan nan nan nan nan nan nan nan nan nan nan
CAPE
0 0 0 0 0 0 0 0 0 0 0 0 0 0 0 0 0 0 0 0 0 0 0 0 0 0 0 0 0 0 0 0
0 0 0 0 0 0 0 0 0 0 0 0 0 0 0 0 0 0 0 0 0 0 0 0 0 0 0 0 0 0 0 0
0 0 0 0 0 0 0 0 0 0 0 0 0 0 0 0 0 0 0 0 0 0 0 0 0 0 0 0 0 0 0 0
0 0 0 0 0 0 0 0 0 0 0 0 0 0 0 0 0 0 0 0 0 0 0 0 0 0 0 0 0 0 0 3
0 0 0 0 0 0 0 0 0 0 0 0 0 0 0 0 0 0 0 0 0 0 0 0 0 0 0 0 0 0 0 0
0 0 0 0 0 0 0 0 0 0 0 0 0 0 0 0 0 0 0 0 0 0 0 0 0 0 0 0 0 0 0 0
0 0 0 0 0 0 0 0 0 0 0 0 0 0 0 0 0 0 0 0 0 0 0 0 0 0 0 0 0 0 0 0
0 0 0 0 0 0 0 0 0 0 0 0 0 0 0 0 0 0 0 0 0 0 0 0 0 0 0 0 0 0 0 0
0 0 0 0 0 0 0 0 0 0 0 0 0 0 0 0 0 0 0 0 0 0 0 0 0 0 0 0 0 0 0 0
0 0 0 0 0 0 0 0 0 0 0 0 0 0 0 0 0 0 0 0 0 0 0 0 0 0 0 0 0 0 0 0
0 0 0 0 0 0 0 0 0 0 0 0 0 0 0 0 0 0 0 0 0 0 0 0 0 0 0 0 0 0 0 0
0 0 0 0 0 0 0 0 0 0 0 0 0 0 0 0 0 0 0 0 0 0 0 0 0 0 0 0 0 0 0 0
0 0 0 0 0 0 0 0 0 0 0 0 0 0 0 0 0 0 0 0 0 0 0 0 0 0 0 0 0 0 0 0
0 0 0 0 0 0 0 0 0 0 0 0 0 0 0 0 0 0 0 0 0 0 0 0 0 0 0 0 0 0 0 0
0 0 0 0 0 0 0 0 0 0 0 0 0 0 0 0 0 0 0 0 0 0 0 0 0 1 2 0 0 7 8 3
0 0 0 0 0 0 0 0 0 0 0 0 0 0 0 0 0 0 0 0 0 0 0 0 0 1 1 3 6 18 22 32
0 0 0 0 0 0 0 0 0 0 0 0 0 0 0 0 0 0 0 0 0 0 0 0 0 0 0 0 0 9 32 48
0 0 0 0 0 0 0 0 0 0 0 0 0 0 0 0 0 0 0 0 0 0 0 0 0 0 0 0 1 4 49 51
0 0 0 0 0 0 0 0 0 0 0 0 0 0 0 0 0 0 0 0 0 0 0 0 0 0 0 0 12 23 39 53